Weather History for Fort Myers, FL

Change the Weather History Date:

Friday, December 28, 2012

  Actual Average Record
Temperature  
Mean Temperature 62 °F 65 °F  
Max Temperature 75 °F 75 °F 87 °F (1981)
Min Temperature 48 °F 54 °F 34 °F (2010)
Degree Days  
Heating Degree Days 3 3  
Month to date heating degree days 30 62  
Since 1 July heating degree days 45 80  
Cooling Degree Days 0 3  
Month to date cooling degree days 148 112  
Year to date cooling degree days 4361 3975  
Growing Degree Days 10 (Base 50)    
Moisture  
Dew Point 58 °F    
Average Humidity 81    
Maximum Humidity 93    
Minimum Humidity 61    
Precipitation  
Precipitation 0.02 in 0.07 in 1.58 in (1905)
Month to date precipitation 2.18 1.54  
Year to date precipitation 49.61 55.76  
Sea Level Pressure  
Sea Level Pressure 30.02 in    
Wind  
Wind Speed 4 mph (East)    
Max Wind Speed 10 mph    
Max Gust Speed 20 mph    
Visibility 9 miles    
Events Rain    
T = Trace of Precipitation, MM = Missing Value Source: NWS Daily Summary

Daily Weather History Graph

Daily Weather History Graph

Search for Another Location

Airport:

Trip Planner

Search our weather history database for the weather conditions in past years. The results will help you decide how hot, cold, wet, or windy it might be!

Date:

Astronomy

Dec. 28, 2012 Rise Set
Actual Time 7:14 AM EST 5:43 PM EST
Civil Twilight 6:49 AM EST 6:09 PM EST
Nautical Twilight 6:20 AM EST 6:38 PM EST
Astronomical Twilight 5:52 AM EST 7:06 PM EST
Moon 6:13 PM EST (12/28) 7:12 AM EST (12/28)
Length of Visible Light 11h 20m
Length of Day
10h 29m
Full, 100% of the Moon is Illuminated
Dec 28
Full
Jan 4
Last Quarter
Jan 11
New
Jan 18
First Quarter
Jan 26
Full

Hourly Weather History & Observations

Time (EST) Temp. Dew Point Humidity Pressure Visibility Wind Dir Wind Speed Gust Speed Precip Events Conditions
12:53 AM 50.0 °F 46.9 °F 89% 30.07 in 10.0 mi NE 3.5 mph - N/A   Clear
1:53 AM 50.0 °F 45.0 °F 83% 30.06 in 10.0 mi Calm Calm - N/A   Clear
2:53 AM 48.9 °F 45.0 °F 86% 30.06 in 10.0 mi Calm Calm - N/A   Clear
3:53 AM 48.0 °F 45.0 °F 89% 30.05 in 10.0 mi East 4.6 mph - N/A   Clear
4:53 AM 48.9 °F 45.0 °F 86% 30.05 in 10.0 mi Calm Calm - N/A   Clear
5:53 AM 50.0 °F 45.0 °F 83% 30.06 in 10.0 mi Calm Calm - N/A   Partly Cloudy
6:53 AM 51.1 °F 46.0 °F 83% 30.06 in 10.0 mi ENE 3.5 mph - N/A   Scattered Clouds
7:53 AM 53.1 °F 46.0 °F 77% 30.06 in 10.0 mi ENE 4.6 mph - N/A   Scattered Clouds
8:53 AM 57.9 °F 50.0 °F 75% 30.08 in 10.0 mi ENE 5.8 mph - N/A   Scattered Clouds
9:46 AM 62.6 °F 51.8 °F 68% 30.07 in 2.5 mi East 5.8 mph - N/A   Haze
9:53 AM 64.0 °F 53.1 °F 67% 30.07 in 10.0 mi East 8.1 mph - N/A   Scattered Clouds
10:53 AM 68.0 °F 55.0 °F 63% 30.08 in 10.0 mi East 5.8 mph - N/A   Overcast
11:53 AM 72.0 °F 57.9 °F 61% 30.05 in 10.0 mi East 5.8 mph - N/A   Overcast
12:53 PM 72.0 °F 61.0 °F 68% 30.02 in 9.0 mi East 5.8 mph - 0.00 in Rain Light Rain
1:53 PM 73.9 °F 62.1 °F 66% 29.99 in 10.0 mi SSE 8.1 mph - 0.00 in   Mostly Cloudy
2:53 PM 73.9 °F 63.0 °F 68% 29.97 in 10.0 mi SE 3.5 mph - N/A   Overcast
3:53 PM 73.0 °F 63.0 °F 71% 29.95 in 10.0 mi East 3.5 mph - N/A   Mostly Cloudy
4:53 PM 71.1 °F 64.9 °F 81% 29.97 in 4.0 mi NE 3.5 mph - 0.02 in Rain Rain
5:53 PM 69.1 °F 66.0 °F 90% 29.96 in 10.0 mi East 4.6 mph - 0.00 in   Overcast
6:25 PM 69.8 °F 66.2 °F 88% 29.96 in 10.0 mi ENE 3.5 mph - N/A   Mostly Cloudy
6:53 PM 68.0 °F 66.0 °F 93% 29.97 in 10.0 mi ESE 4.6 mph - N/A   Mostly Cloudy
7:04 PM 68.0 °F 66.2 °F 94% 29.97 in 10.0 mi Calm Calm - N/A   Mostly Cloudy
7:18 PM 68.0 °F 66.2 °F 94% 29.97 in 10.0 mi Calm Calm - N/A   Mostly Cloudy
7:53 PM 68.0 °F 66.0 °F 93% 29.99 in 10.0 mi NE 4.6 mph - 0.00 in   Mostly Cloudy
8:53 PM 68.0 °F 64.9 °F 90% 29.99 in 8.0 mi Calm Calm - N/A   Mostly Cloudy
9:53 PM 68.0 °F 66.0 °F 93% 29.99 in 9.0 mi Calm Calm - 0.00 in   Overcast
10:53 PM 71.1 °F 68.0 °F 90% 29.98 in 10.0 mi SSE 5.8 mph - N/A   Mostly Cloudy
11:53 PM 72.0 °F 69.1 °F 91% 29.96 in 10.0 mi SSE 8.1 mph - N/A   Overcast